Probability
10 10 6 10 13 6 3 3 3 10 10 10 13 16 23 16 13 29 32 68 87 97 100 94 90 94 100 100 97 94 97 100 97 100 94 90 77 77 71 58 52 48 52
13 6 10 6 3 3 3 0 0 0 0 0 3 3 13 13 13 16 16 35 65 97 97 90 90 90 100 94 94 94 97 94 97 94 100 94 90 90 71 74 55 45 48
13 6 3 0 0 3 0 0 0 0 0 0 0 0 0 3 6 13 16 19 42 58 77 90 81 84 87 84 87 84 90 94 90 90 90 87 94 94 90 87 65 52 42
10 6 3 3 3 0 0 0 0 0 0 0 0 0 0 0 0 3 16 13 23 26 39 58 61 68 74 61 61 74 84 84 87 84 81 84 84 84 84 87 84 68 42
6 0 3 0 0 0 0 0 0 0 0 0 0 0 0 0 0 0 3 3 3 10 19 19 45 42 48 39 42 58 68 71 74 84 81 74 71 65 58 58 61 52 26
0 0 0 0 0 0 0 0 0 0 0 0 0 0 0 0 0 0 0 0 3 10 10 10 19 23 29 32 42 35 35 52 68 58 65 58 61 61 48 39 32 32 19
0 0 0 0 0 0 0 0 0 0 0 0 0 0 0 0 0 0 0 0 0 0 3 6 6 3 10 6 16 32 32 26 45 61 55 52 52 55 45 39 26 26 23
0 0 0 0 0 0 0 0 0 0 0 0 0 0 0 0 0 0 0 0 0 0 0 0 3 3 3 6 3 3 23 23 35 35 42 42 39 29 23 29 16 19 19
0 0 0 0 0 0 0 0 0 0 0 0 0 0 0 0 0 0 0 0 0 0 0 0 0 0 3 3 3 3 10 16 23 16 26 26 19 16 6 10 13 10 16
0 0 0 0 0 0 0 0 0 0 0 0 0 0 0 0 0 0 0 0 0 0 0 0 0 0 0 3 0 0 3 6 10 16 16 19 16 6 6 10 13 13 10
0 3 0 0 0 0 0 0 0 0 0 0 0 0 0 0 0 0 0 0 0 0 0 0 0 0 0 0 0 0 0 0 3 6 10 13 13 16 13 10 13 16 13
0 3 3 0 0 0 0 0 0 0 0 0 0 0 0 0 0 0 0 0 0 0 0 0 0 0 0 0 0 0 0 0 0 0 3 3 3 10 10 13 6 13 16
0 3 3 0 0 0 0 0 0 0 0 0 0 0 0 0 0 0 0 0 0 0 0 0 0 0 0 0 0 0 0 0 0 0 0 0 0 0 0 0 3 3 6
3 0 3 0 0 0 0 0 0 0 0 0 0 0 0 0 0 0 0 0 0 0 0 0 0 0 0 0 0 0 0 0 0 0 0 0 0 0 0 0 0 0 0
3 3 3 0 0 0 0 0 0 0 0 0 0 0 0 0 0 0 0 0 0 0 0 0 0 0 0 0 0 0 0 0 0 0 0 0 0 0 0 0 0 0 0
3 0 3 0 0 0 0 0 0 0 0 0 0 0 0 0 0 0 0 0 0 0 0 0 0 0 0 0 0 0 0 0 0 0 0 0 0 0 0 0 0 0 0
0 3 3 0 0 0 0 0 0 0 0 0 0 0 0 0 0 0 0 0 0 0 0 0 0 0 0 0 0 0 0 0 0 0 0 0 0 0 0 0 0 0 0
0 0 0 0 0 0 0 0 0 0 0 0 0 0 0 0 0 0 0 0 0 0 0 0 0 0 0 0 0 0 0 0 0 0 0 0 0 0 0 0 0 0 0
0 0 0 0 0 0 0 0 0 0 0 0 0 0 0 0 0 0 0 0 0 0 0 0 0 0 0 0 0 0 0 0 0 0 0 0 0 0 0 0 0 0 0
0 0 0 0 0 0 0 0 0 0 0 0 0 0 0 0 0 0 0 0 0 0 0 0 0 0 0 0 0 0 0 0 0 0 0 0 0 0 0 0 0 0 0
3 0 0 0 0 0 0 0 0 0 0 0 0 0 0 0 0 0 0 0 0 0 0 0 0 0 0 0 0 0 0 0 0 0 0 0 0 0 0 0 0 0 0
3 0 0 0 0 0 0 0 0 0 0 0 0 0 0 0 0 0 0 0 0 0 0 0 0 0 0 0 0 0 0 0 0 0 0 0 0 0 0 0 0 0 0
0 0 0 0 0 0 0 0 0 0 0 0 0 0 0 0 0 0 0 0 0 0 0 0 0 0 0 0 0 0 0 0 0 0 0 0 0 0 0 0 0 0 0
0 0 0 0 0 0 0 0 0 0 0 0 0 0 0 0 0 0 0 0 0 0 0 0 0 0 0 0 0 0 0 0 0 0 0 0 0 0 0 0 0 0 0
0 0 0 0 0 0 0 0 0 0 0 0 0 0 0 0 0 0 0 0 0 0 0 0 0 0 0 0 0 0 0 0 0 0 0 0 0 0 0 0 0 0 0
0 0 0 0 0 0 0 0 0 0 0 0 0 0 0 0 0 0 0 0 0 0 0 0 0 0 0 0 0 0 0 0 0 0 0 0 0 0 0 0 0 0 0
Height
5876 5877 5877 5877 5878 5878 5878 5878 5879 5879 5879 5879 5879 5878 5878 5878 5878 5878 5878 5878 5879 5880 5880 5881 5882 5883 5884 5886 5887 5888 5890 5891 5892 5893 5895 5896 5897 5899 5900 5900 5901 5902 5903
5875 5876 5876 5877 5877 5877 5877 5878 5878 5878 5878 5878 5878 5878 5877 5877 5877 5877 5877 5877 5878 5879 5879 5880 5881 5882 5883 5884 5885 5886 5887 5889 5890 5892 5893 5895 5896 5897 5898 5899 5900 5901 5902
5874 5875 5875 5876 5876 5876 5877 5877 5877 5878 5878 5878 5878 5877 5877 5876 5876 5876 5876 5877 5877 5877 5878 5879 5880 5880 5881 5882 5883 5884 5886 5887 5888 5890 5891 5892 5894 5895 5896 5897 5899 5900 5900
5873 5874 5874 5875 5876 5876 5876 5876 5877 5877 5877 5877 5877 5877 5877 5876 5876 5876 5876 5876 5876 5876 5877 5878 5878 5879 5880 5881 5882 5883 5884 5885 5886 5887 5888 5890 5891 5892 5894 5895 5896 5898 5899
5872 5873 5874 5875 5875 5875 5876 5876 5877 5877 5877 5877 5877 5877 5876 5876 5876 5875 5875 5875 5875 5876 5876 5877 5877 5878 5879 5879 5880 5881 5881 5882 5883 5885 5886 5887 5888 5890 5891 5892 5894 5895 5896
5871 5872 5873 5874 5875 5875 5876 5876 5876 5876 5877 5877 5877 5877 5876 5876 5876 5875 5875 5875 5875 5875 5875 5876 5876 5877 5877 5878 5878 5879 5879 5880 5881 5882 5883 5884 5885 5886 5888 5889 5891 5892 5893
5870 5871 5873 5874 5874 5875 5875 5876 5876 5876 5876 5877 5877 5877 5876 5876 5876 5875 5875 5875 5875 5874 5875 5875 5875 5875 5876 5876 5876 5877 5877 5878 5878 5879 5880 5881 5882 5883 5885 5886 5887 5888 5890
5869 5870 5872 5873 5874 5875 5875 5875 5876 5876 5876 5876 5877 5876 5876 5877 5876 5876 5875 5875 5874 5874 5874 5874 5874 5874 5875 5875 5875 5875 5876 5876 5876 5877 5877 5878 5879 5880 5881 5882 5884 5885 5886
5868 5869 5871 5872 5873 5874 5875 5875 5875 5876 5876 5876 5876 5877 5876 5876 5876 5876 5875 5875 5874 5874 5874 5873 5873 5874 5874 5873 5873 5874 5874 5874 5874 5874 5875 5875 5876 5877 5878 5879 5880 5881 5882
5866 5868 5870 5871 5872 5873 5874 5875 5875 5876 5876 5876 5876 5876 5876 5876 5876 5876 5875 5875 5874 5874 5873 5873 5873 5873 5872 5872 5872 5872 5872 5872 5872 5872 5872 5872 5873 5874 5874 5875 5876 5877 5878
5865 5867 5869 5870 5871 5873 5874 5874 5875 5875 5876 5876 5876 5876 5876 5876 5875 5875 5875 5875 5874 5873 5873 5872 5872 5871 5871 5871 5870 5870 5870 5870 5870 5869 5869 5870 5870 5870 5871 5872 5872 5873 5874
5864 5866 5868 5869 5870 5872 5873 5874 5874 5875 5875 5875 5875 5875 5875 5875 5875 5875 5874 5874 5873 5873 5872 5871 5870 5870 5869 5869 5868 5868 5868 5867 5867 5867 5867 5867 5867 5867 5868 5868 5869 5869 5870
5863 5864 5866 5868 5869 5870 5871 5872 5873 5874 5874 5874 5874 5874 5874 5874 5874 5873 5873 5872 5872 5871 5870 5870 5869 5868 5867 5867 5866 5866 5865 5865 5864 5864 5864 5863 5863 5864 5864 5864 5865 5865 5865
5861 5862 5864 5866 5867 5868 5869 5870 5871 5872 5872 5872 5872 5872 5872 5872 5872 5871 5871 5871 5870 5869 5869 5868 5867 5866 5865 5864 5864 5863 5862 5862 5861 5861 5860 5860 5860 5860 5860 5860 5860 5861 5861
5858 5860 5861 5863 5864 5866 5867 5868 5868 5869 5869 5870 5870 5870 5869 5869 5869 5869 5868 5868 5868 5867 5866 5865 5864 5863 5862 5862 5861 5860 5859 5859 5858 5857 5857 5856 5856 5856 5856 5855 5856 5856 5856
5855 5857 5859 5860 5861 5863 5864 5864 5865 5866 5866 5866 5866 5866 5866 5866 5865 5865 5865 5864 5864 5863 5862 5861 5860 5860 5859 5858 5857 5856 5856 5855 5854 5853 5853 5852 5851 5851 5851 5850 5850 5850 5850
5852 5854 5855 5856 5858 5859 5860 5860 5861 5862 5862 5862 5862 5862 5862 5861 5861 5861 5860 5860 5859 5858 5858 5857 5856 5855 5854 5853 5853 5852 5851 5850 5850 5849 5848 5847 5847 5846 5845 5845 5844 5844 5844
5849 5850 5851 5852 5854 5854 5855 5856 5856 5857 5857 5857 5857 5857 5856 5856 5856 5855 5855 5854 5854 5853 5853 5852 5851 5850 5849 5848 5847 5847 5846 5845 5844 5844 5843 5842 5841 5841 5840 5839 5838 5838 5837
5845 5846 5847 5848 5849 5849 5850 5850 5850 5851 5851 5851 5851 5851 5850 5850 5849 5849 5848 5848 5847 5847 5846 5845 5844 5844 5843 5842 5841 5840 5840 5839 5838 5837 5836 5836 5835 5834 5833 5832 5832 5831 5831
5840 5841 5842 5843 5843 5844 5844 5844 5844 5844 5844 5844 5844 5843 5843 5843 5842 5842 5841 5840 5840 5840 5839 5838 5837 5836 5835 5834 5833 5833 5832 5831 5831 5830 5829 5828 5827 5826 5825 5825 5824 5823 5823
5834 5835 5836 5837 5837 5837 5837 5837 5837 5837 5836 5836 5836 5835 5835 5834 5833 5833 5833 5832 5832 5831 5831 5830 5829 5828 5827 5826 5825 5824 5824 5823 5822 5821 5820 5819 5818 5817 5817 5816 5815 5814 5814
5828 5829 5829 5829 5830 5829 5829 5829 5828 5828 5828 5827 5826 5826 5825 5825 5824 5824 5823 5823 5822 5822 5821 5820 5820 5819 5818 5817 5816 5815 5814 5813 5813 5812 5811 5810 5809 5808 5807 5806 5805 5804 5804
5821 5822 5822 5822 5822 5822 5821 5820 5820 5819 5819 5818 5817 5816 5815 5815 5814 5814 5813 5813 5812 5811 5811 5810 5810 5809 5808 5807 5806 5805 5803 5803 5802 5801 5800 5800 5798 5797 5796 5795 5794 5793 5792
5814 5814 5814 5813 5813 5813 5812 5811 5810 5810 5809 5808 5807 5806 5805 5804 5803 5803 5802 5802 5801 5800 5799 5798 5798 5797 5796 5795 5794 5793 5792 5791 5791 5789 5787 5788 5787 5786 5785 5783 5782 5781 5780
5807 5806 5805 5805 5804 5803 5802 5801 5800 5799 5799 5798 5796 5795 5794 5794 5792 5791 5791 5790 5789 5788 5787 5786 5786 5784 5783 5782 5781 5780 5779 5778 5778 5778 5775 5774 5774 5772 5772 5771 5769 5767 5766
5798 5797 5796 5795 5794 5793 5792 5791 5790 5789 5788 5787 5785 5784 5783 5782 5781 5779 5778 5778 5777 5776 5774 5773 5772 5771 5770 5768 5767 5766 5765 5764 5763 5763 5762 5759 5758 5756 5757 5758 5755 5753 5751
Wind_Speed
8 7 7 6 6 6 5 4 4 3 2 2 3 3 3 3 3 3 4 4 4 6 7 7 8 9 10 10 10 10 10 10 10 11 11 10 10 9 8 8 7 7 6
7 7 6 5 5 4 4 3 3 2 2 2 2 3 3 3 3 3 3 4 4 5 6 7 8 9 10 10 10 10 10 10 11 12 12 12 11 11 10 10 9 8 8
7 6 5 4 3 3 2 2 2 2 2 2 2 2 2 2 2 2 3 3 3 4 5 6 7 8 9 9 9 9 10 11 11 12 13 14 14 13 12 12 11 10 9
7 6 4 3 3 2 1 1 1 2 2 2 2 2 2 2 2 2 2 2 3 4 5 6 7 8 9 9 9 9 9 10 12 12 13 14 14 14 14 14 13 13 12
7 6 5 4 2 1 0 1 1 2 2 2 2 2 2 2 2 1 1 1 2 3 4 5 6 8 8 9 10 9 9 10 11 13 13 14 14 15 15 15 15 15 14
8 7 6 4 3 2 1 0 1 1 1 2 2 2 2 2 2 2 1 1 2 3 4 5 6 7 7 8 9 9 10 10 11 12 13 14 14 15 16 17 17 17 17
9 8 7 5 3 2 1 0 0 1 1 1 1 2 2 2 2 2 2 2 1 2 2 3 4 5 6 7 8 9 9 10 11 11 12 13 14 15 16 17 18 18 19
9 8 8 6 4 3 2 1 1 0 0 1 1 1 1 2 2 3 2 2 2 2 1 2 3 4 5 6 7 8 9 10 11 12 13 14 14 15 16 17 17 18 19
10 10 8 7 5 4 3 2 1 0 0 0 1 1 1 1 2 3 3 2 2 2 2 2 3 4 5 6 6 8 8 9 10 11 12 14 15 15 16 16 17 18 19
11 11 9 8 6 5 4 3 2 1 0 0 0 1 2 2 2 3 3 3 3 3 3 4 4 5 6 7 7 8 8 9 10 11 12 13 14 15 15 17 18 19 20
12 11 10 9 7 6 5 4 3 2 2 1 1 2 2 3 3 3 4 4 4 4 4 5 5 6 6 7 8 9 9 9 10 11 12 13 13 14 16 16 17 18 19
13 12 11 10 9 8 7 6 5 4 3 3 3 3 4 4 4 5 5 5 6 6 6 6 6 7 7 8 8 9 10 10 11 11 12 13 14 14 15 16 16 17 19
14 13 12 12 11 10 9 8 7 6 6 6 6 6 6 6 7 7 7 7 7 7 7 8 8 8 8 9 9 9 10 11 12 12 13 13 14 15 16 16 17 18 19
15 14 14 13 13 12 11 10 10 9 9 9 9 9 10 10 10 10 10 10 10 10 10 10 10 10 10 10 10 11 11 12 12 13 14 14 15 16 17 18 18 19 19
16 15 15 15 15 15 14 13 13 12 13 13 13 13 13 13 13 13 13 13 13 13 13 13 13 13 13 13 13 13 13 13 14 14 14 15 16 17 18 19 20 21 21
16 16 17 17 17 17 16 16 16 16 16 16 16 16 16 16 17 17 17 17 17 16 16 16 16 16 16 16 16 16 16 17 17 17 17 17 18 18 19 20 21 22 23
18 18 18 18 19 19 19 19 20 20 20 20 20 20 20 20 20 20 20 20 20 19 19 19 19 18 18 19 19 20 20 20 19 19 19 20 20 20 21 21 22 23 24
18 19 19 20 20 21 22 22 23 23 23 24 23 24 24 24 24 24 24 23 23 22 22 22 22 22 22 22 22 22 23 23 23 23 23 23 23 23 24 24 24 25 25
20 21 21 22 23 24 24 25 26 26 27 27 27 28 28 28 28 27 27 27 27 26 26 26 26 26 26 26 26 25 26 26 26 26 26 26 26 26 26 26 27 27 27
22 23 24 25 25 26 27 28 28 29 30 30 31 31 31 31 31 31 31 30 30 29 29 29 29 29 29 29 29 29 29 29 29 29 29 29 29 29 29 29 30 30 30
25 26 27 27 28 29 30 31 31 32 33 33 33 34 34 34 34 34 33 33 32 32 32 32 32 31 31 32 32 32 32 32 32 32 33 33 33 33 33 33 33 33 33
27 28 29 30 30 32 33 33 34 35 35 35 36 36 36 36 36 36 36 36 36 35 35 35 35 35 35 35 35 35 35 35 35 36 36 36 36 36 36 36 36 36 36
28 29 30 32 33 34 34 35 37 36 36 37 38 38 38 39 39 39 39 38 38 38 38 39 38 38 38 38 38 38 38 39 38 39 39 39 39 39 39 39 39 39 39
28 29 31 33 34 35 37 38 38 38 39 39 40 40 40 40 41 41 41 41 41 42 42 42 42 42 42 42 42 42 42 42 42 42 43 42 42 42 42 43 43 43 43
28 30 31 33 34 36 37 37 38 38 39 40 40 40 41 41 41 42 42 43 43 44 45 45 44 44 44 45 45 45 45 45 45 45 46 46 45 46 46 46 47 47 47
30 32 33 34 34 36 38 39 39 39 39 39 40 40 41 42 42 43 43 44 45 46 47 46 46 47 47 47 48 48 49 49 49 48 49 51 51 52 50 49 50 51 52
Wind_Direction
265 274 284 295 299 303 312 321 324 322 323 320 321 321 314 312 293 273 263 248 239 233 229 230 228 224 222 222 226 227 226 226 225 221 218 219 220 221 222 222 222 224 227
256 265 277 287 290 300 316 330 340 350 1 345 346 335 321 311 295 273 263 249 243 236 229 229 228 221 219 223 227 226 225 225 226 225 225 225 226 227 228 229 229 230 232
250 252 267 277 286 299 317 333 360 23 28 24 23 12 346 334 315 285 259 247 245 238 231 230 228 225 224 227 232 231 227 227 229 230 231 232 232 233 232 233 234 235 236
238 241 251 261 265 286 303 11 45 38 36 45 46 32 14 4 341 306 270 255 251 244 236 237 235 230 230 234 238 237 234 233 233 234 235 235 235 236 235 236 237 239 240
227 231 236 239 237 237 207 55 37 36 46 53 49 29 24 22 14 345 304 277 256 243 240 239 240 239 239 241 241 242 244 242 238 238 239 238 238 239 238 239 240 241 242
219 221 223 218 215 223 245 318 20 46 44 48 43 34 35 33 29 23 353 315 275 254 250 248 245 241 242 243 246 250 250 248 246 244 242 241 241 241 241 241 243 244 244
214 214 214 212 210 216 215 198 72 55 58 58 50 37 32 34 31 26 18 1 337 284 262 256 248 246 250 249 250 251 253 252 250 251 248 245 245 245 244 245 247 247 247
212 209 211 209 202 201 199 187 155 123 62 53 52 38 37 27 19 18 13 1 356 345 302 272 264 262 261 259 256 253 254 255 256 254 250 248 249 248 248 249 249 250 249
210 208 210 208 204 204 202 188 172 170 119 76 48 31 21 8 6 6 9 4 356 348 333 306 287 282 278 277 267 262 258 259 260 259 256 253 252 252 251 251 251 252 251
208 207 207 208 206 206 203 192 189 216 258 296 340 353 352 344 341 349 352 346 336 327 320 313 302 294 284 279 275 272 267 264 264 261 259 256 254 254 254 255 255 255 253
208 210 211 211 211 213 213 209 214 233 256 280 302 313 316 320 327 333 335 334 327 319 310 306 302 298 292 286 279 274 272 270 269 266 264 260 259 259 259 260 259 259 257
212 216 219 219 219 221 222 224 229 237 252 267 278 290 299 304 308 313 314 317 318 317 312 309 305 300 296 292 285 280 276 273 272 271 269 266 263 263 262 262 262 261 261
219 222 225 226 227 228 229 234 242 249 258 265 273 280 287 291 296 299 301 304 305 305 302 302 302 302 299 295 291 287 282 278 275 273 272 271 268 267 266 264 263 263 263
223 227 228 229 232 233 236 242 248 255 260 265 272 278 282 286 289 291 292 294 295 295 293 294 295 295 294 293 292 290 288 285 282 279 276 274 272 270 270 268 266 265 266
229 231 233 233 234 237 242 247 252 257 262 266 270 275 279 282 284 286 287 287 288 287 287 287 288 288 287 286 286 286 286 285 283 282 281 279 276 274 273 271 269 267 266
232 236 238 238 240 243 247 251 256 259 263 266 269 272 275 278 280 282 283 282 282 282 282 283 284 285 284 284 283 282 282 282 281 280 280 280 280 278 276 273 271 270 268
237 241 242 244 246 249 252 256 260 262 264 266 269 271 273 276 277 278 280 281 280 279 280 282 282 282 282 281 280 280 280 280 280 279 279 279 280 280 278 277 275 273 272
244 245 247 249 252 255 258 260 262 263 265 267 269 271 273 274 276 278 278 278 278 277 278 280 281 281 281 281 280 279 278 278 278 279 279 279 279 279 279 278 277 275 274
250 251 253 255 257 259 260 262 264 265 267 269 270 272 273 274 275 276 277 276 276 275 276 277 278 279 279 279 279 278 277 276 277 277 277 278 279 279 278 278 277 276 275
255 257 259 261 262 263 264 266 267 268 269 270 272 273 273 274 274 275 275 274 274 274 275 275 276 277 278 278 277 277 277 276 276 276 275 276 276 277 277 277 276 276 275
257 259 260 263 265 266 267 267 268 269 270 272 273 274 274 273 273 273 273 273 274 273 273 274 275 275 276 276 276 276 276 275 275 275 275 275 276 276 276 276 276 276 275
258 260 262 264 266 268 269 269 269 270 271 272 272 272 273 273 273 273 273 273 273 273 273 274 274 275 275 275 275 276 276 276 275 275 275 275 276 276 276 276 276 277 276
262 263 265 265 267 269 269 270 271 272 272 273 273 273 273 273 273 272 273 273 273 273 274 274 275 275 275 275 275 275 275 276 276 276 275 276 276 276 276 276 277 277 276
266 266 267 267 268 269 270 272 274 273 272 272 273 272 273 274 274 274 273 272 273 273 275 275 274 274 275 276 276 276 276 276 276 276 276 275 275 275 275 276 277 276 276
269 269 270 270 270 270 270 272 273 275 275 275 274 273 272 273 274 274 274 274 273 273 275 276 275 275 276 276 275 275 275 276 276 276 276 275 274 273 273 275 275 276 275
271 272 272 273 273 273 272 273 274 275 275 275 274 273 273 274 274 274 274 274 274 274 275 275 275 275 276 276 276 275 275 276 276 275 275 275 275 274 273 273 275 275 275